Location: Unspecified
(51.0000°N, 0.0000°E)
Time: 07:32:48
(UTC+00:00)

SPOT 5 - Visible Passes

Search period start: 04 April 2026 00:00
Search period end: 14 April 2026 00:00
Orbit: 618 x 803 km, 98.0° (Epoch: 29 March)

Date Brightness Start Highest point End Pass type
(mag) Time Alt. Az. Time Alt. Az. Time Alt. Az.
4 Apr 4.8 20:32:58 10° SSW 20:37:11 28° W 20:41:14 10° NW visible
5 Apr 3.0 19:39:19 10° S 19:44:15 76° WSW 19:48:57 10° NNW visible
5 Apr 5.7 21:21:23 10° WSW 21:22:54 11° W 21:24:25 10° WNW visible
6 Apr 4.6 20:25:18 10° SSW 20:29:38 31° W 20:33:49 10° NNW visible
7 Apr 2.9 19:31:51 10° SSE 19:36:45 87° WSW 19:41:24 10° NNW visible
7 Apr 5.6 21:13:06 10° WSW 21:15:18 13° W 21:17:29 10° WNW visible
8 Apr 4.3 20:17:39 10° SSW 20:22:05 35° W 20:26:22 10° NNW visible
9 Apr 2.8 19:24:26 10° SSE 19:29:15 81° ENE 19:33:50 10° NNW visible
9 Apr 5.5 21:05:02 10° WSW 21:07:42 15° W 21:10:20 10° NW visible
10 Apr 4.1 20:10:02 10° SSW 20:14:33 40° W 20:18:53 10° NNW visible
11 Apr 2.8 19:17:00 10° SSE 19:21:44 70° ENE 19:26:15 10° N visible
11 Apr 5.4 20:57:04 10° SW 21:00:06 17° W 21:03:05 10° NW visible
12 Apr 3.8 20:02:26 10° S 20:07:00 46° W 20:11:22 10° NNW visible
13 Apr 5.2 20:49:11 10° SW 20:52:31 19° W 20:55:46 10° NW visible
